Time,TemperatureF,DewpointF,PressureIn,WindDirection,WindDirectionDegrees,WindSpeedMPH,WindSpeedGustMPH,Humidity,HourlyPrecipIn,Conditions,Clouds,dailyrainin,SoftwareType,DateUTC
2013-05-28 00:03:00,48.4,16.8,29.76,SW,223,0.0,0.0,28,0.00,,,0.00,VWS V14.01,2013-05-28 07:03:00,
2013-05-28 00:09:00,48.4,16.8,29.76,WSW,252,0.0,0.0,28,0.00,,,0.00,VWS V14.01,2013-05-28 07:09:00,
2013-05-28 00:14:00,48.2,16.6,29.76,WSW,252,0.0,0.0,28,0.00,,,0.00,VWS V14.01,2013-05-28 07:14:00,
2013-05-28 00:20:00,48.2,16.6,29.76,WSW,252,0.0,0.0,28,0.00,,,0.00,VWS V14.01,2013-05-28 07:20:00,
2013-05-28 00:25:00,48.2,16.6,29.76,WSW,252,0.0,0.0,28,0.00,,,0.00,VWS V14.01,2013-05-28 07:25:00,
2013-05-28 00:31:00,48.0,16.5,29.76,WSW,251,0.0,0.0,28,0.00,,,0.00,VWS V14.01,2013-05-28 07:31:00,
2013-05-28 00:36:00,47.8,16.3,29.76,SSW,200,4.0,4.0,28,0.00,,,0.00,VWS V14.01,2013-05-28 07:36:00,
2013-05-28 00:41:00,47.8,16.3,29.76,SSW,200,4.0,4.0,28,0.00,,,0.00,VWS V14.01,2013-05-28 07:41:00,
2013-05-28 00:47:00,47.7,16.2,29.76,SW,231,0.0,0.0,28,0.00,,,0.00,VWS V14.01,2013-05-28 07:47:00,
2013-05-28 00:54:00,47.5,16.0,29.76,SW,231,0.0,0.0,28,0.00,,,0.00,VWS V14.01,2013-05-28 07:54:00,
2013-05-28 00:59:00,47.3,15.9,29.76,SW,231,0.0,0.0,28,0.00,,,0.00,VWS V14.01,2013-05-28 07:59:00,
2013-05-28 01:05:00,47.1,15.7,29.76,SW,231,0.0,0.0,28,0.00,,,0.00,VWS V14.01,2013-05-28 08:05:00,
2013-05-28 01:10:00,46.9,15.6,29.76,SW,231,0.0,0.0,28,0.00,,,0.00,VWS V14.01,2013-05-28 08:10:00,
2013-05-28 01:16:00,46.8,15.4,29.76,SW,231,0.0,0.0,28,0.00,,,0.00,VWS V14.01,2013-05-28 08:16:00,
2013-05-28 01:21:00,46.6,15.2,29.76,SW,231,0.0,0.0,28,0.00,,,0.00,VWS V14.01,2013-05-28 08:21:00,
2013-05-28 01:27:00,46.6,15.2,29.76,SW,231,0.0,0.0,28,0.00,,,0.00,VWS V14.01,2013-05-28 08:27:00,
2013-05-28 01:32:00,46.6,15.2,29.76,SW,231,0.0,0.0,28,0.00,,,0.00,VWS V14.01,2013-05-28 08:32:00,
2013-05-28 01:37:00,46.4,15.1,29.76,SW,231,0.0,0.0,28,0.00,,,0.00,VWS V14.01,2013-05-28 08:37:00,
2013-05-28 01:43:00,46.2,14.9,29.76,SW,231,0.0,0.0,28,0.00,,,0.00,VWS V14.01,2013-05-28 08:43:00,
2013-05-28 01:48:00,46.0,14.8,29.76,SW,231,0.0,0.0,28,0.00,,,0.00,VWS V14.01,2013-05-28 08:48:00,
2013-05-28 01:54:00,45.9,14.6,29.76,SW,232,0.0,0.0,28,0.00,,,0.00,VWS V14.01,2013-05-28 08:54:00,
2013-05-28 01:59:00,45.9,14.6,29.76,SW,232,0.0,0.0,28,0.00,,,0.00,VWS V14.01,2013-05-28 08:59:00,
2013-05-28 02:04:00,45.9,14.6,29.76,SW,232,0.0,0.0,28,0.00,,,0.00,VWS V14.01,2013-05-28 09:04:00,
2013-05-28 02:10:00,45.9,14.6,29.76,SW,232,0.0,0.0,28,0.00,,,0.00,VWS V14.01,2013-05-28 09:10:00,
2013-05-28 02:15:00,45.7,14.5,29.76,SW,232,0.0,0.0,28,0.00,,,0.00,VWS V14.01,2013-05-28 09:15:00,
2013-05-28 02:22:00,45.7,14.5,29.76,SW,232,0.0,0.0,28,0.00,,,0.00,VWS V14.01,2013-05-28 09:22:00,
2013-05-28 02:27:00,45.5,14.3,29.76,SW,232,0.0,0.0,28,0.00,,,0.00,VWS V14.01,2013-05-28 09:27:00,
2013-05-28 02:32:00,45.5,14.3,29.76,SW,232,0.0,0.0,28,0.00,,,0.00,VWS V14.01,2013-05-28 09:32:00,
2013-05-28 02:37:00,45.5,14.3,29.76,SW,232,0.0,0.0,28,0.00,,,0.00,VWS V14.01,2013-05-28 09:37:00,
2013-05-28 02:42:00,45.5,14.3,29.76,SW,232,0.0,0.0,28,0.00,,,0.00,VWS V14.01,2013-05-28 09:42:00,
2013-05-28 02:49:00,45.5,14.3,29.76,SW,232,0.0,0.0,28,0.00,,,0.00,VWS V14.01,2013-05-28 09:49:00,
2013-05-28 02:54:00,45.5,14.3,29.76,SW,223,0.0,0.0,28,0.00,,,0.00,VWS V14.01,2013-05-28 09:54:00,
2013-05-28 02:59:00,45.5,15.1,29.76,SW,230,0.0,0.0,29,0.00,,,0.00,VWS V14.01,2013-05-28 09:59:00,
2013-05-28 03:05:00,45.5,15.1,29.76,WSW,257,0.0,0.0,29,0.00,,,0.00,VWS V14.01,2013-05-28 10:05:00,
2013-05-28 03:10:00,45.5,15.1,29.76,WNW,297,0.0,0.0,29,0.00,,,0.00,VWS V14.01,2013-05-28 10:10:00,
2013-05-28 03:15:00,45.5,15.1,29.76,WNW,297,0.0,0.0,29,0.00,,,0.00,VWS V14.01,2013-05-28 10:15:00,
2013-05-28 03:20:00,45.3,14.9,29.76,WNW,297,0.0,0.0,29,0.00,,,0.00,VWS V14.01,2013-05-28 10:20:00,
2013-05-28 03:26:00,45.3,14.9,29.76,WNW,297,0.0,0.0,29,0.00,,,0.00,VWS V14.01,2013-05-28 10:26:00,
2013-05-28 03:31:00,45.3,14.9,29.76,WNW,297,0.0,0.0,29,0.00,,,0.00,VWS V14.01,2013-05-28 10:31:00,
2013-05-28 03:37:00,45.3,14.9,29.76,WNW,297,0.0,0.0,29,0.00,,,0.00,VWS V14.01,2013-05-28 10:37:00,
2013-05-28 03:43:00,45.3,14.9,29.76,WNW,297,0.0,0.0,29,0.00,,,0.00,VWS V14.01,2013-05-28 10:43:00,
2013-05-28 03:48:00,45.5,15.1,29.76,WNW,297,0.0,0.0,29,0.00,,,0.00,VWS V14.01,2013-05-28 10:48:00,
2013-05-28 03:54:00,45.5,15.1,29.76,West,272,0.0,0.0,29,0.00,,,0.00,VWS V14.01,2013-05-28 10:54:00,
2013-05-28 03:59:00,45.7,15.3,29.76,WSW,238,0.0,0.0,29,0.00,,,0.00,VWS V14.01,2013-05-28 10:59:00,
2013-05-28 04:05:00,45.9,15.4,29.76,WSW,240,0.0,0.0,29,0.00,,,0.00,VWS V14.01,2013-05-28 11:05:00,
2013-05-28 04:10:00,45.7,15.3,29.76,West,273,0.0,0.0,29,0.00,,,0.00,VWS V14.01,2013-05-28 11:10:00,
2013-05-28 04:16:00,45.5,15.1,29.76,West,277,0.0,0.0,29,0.00,,,0.00,VWS V14.01,2013-05-28 11:16:00,
2013-05-28 04:21:00,45.5,15.1,29.76,West,278,0.0,0.0,29,0.00,,,0.00,VWS V14.01,2013-05-28 11:21:00,
2013-05-28 04:26:00,45.5,15.1,29.76,NW,308,0.0,0.0,29,0.00,,,0.00,VWS V14.01,2013-05-28 11:26:00,
2013-05-28 04:33:00,45.3,14.9,29.76,NW,324,0.0,0.0,29,0.00,,,0.00,VWS V14.01,2013-05-28 11:33:00,
2013-05-28 04:38:00,45.1,14.8,29.76,NW,326,0.0,0.0,29,0.00,,,0.00,VWS V14.01,2013-05-28 11:38:00,
2013-05-28 04:44:00,45.1,14.8,29.76,NW,326,0.0,0.0,29,0.00,,,0.00,VWS V14.01,2013-05-28 11:44:00,
2013-05-28 04:49:00,45.3,14.9,29.76,North,4,0.0,0.0,29,0.00,,,0.00,VWS V14.01,2013-05-28 11:49:00,
2013-05-28 04:55:00,45.1,14.8,29.76,North,5,0.0,0.0,29,0.00,,,0.00,VWS V14.01,2013-05-28 11:55:00,
2013-05-28 05:01:00,45.1,14.8,29.76,North,5,0.0,0.0,29,0.00,,,0.00,VWS V14.01,2013-05-28 12:01:00,
2013-05-28 05:06:00,44.8,14.5,29.76,North,5,0.0,0.0,29,0.00,,,0.00,VWS V14.01,2013-05-28 12:06:00,
2013-05-28 05:11:00,44.8,14.5,29.76,North,5,0.0,0.0,29,0.00,,,0.00,VWS V14.01,2013-05-28 12:11:00,
2013-05-28 05:16:00,44.6,14.3,29.76,North,5,0.0,0.0,29,0.00,,,0.00,VWS V14.01,2013-05-28 12:16:00,
2013-05-28 05:22:00,44.6,14.3,29.76,North,5,0.0,0.0,29,0.00,,,0.00,VWS V14.01,2013-05-28 12:22:00,
2013-05-28 05:28:00,44.6,14.3,29.76,North,5,0.0,0.0,29,0.00,,,0.00,VWS V14.01,2013-05-28 12:28:00,
2013-05-28 05:33:00,44.6,14.3,29.76,North,5,0.0,0.0,29,0.00,,,0.00,VWS V14.01,2013-05-28 12:33:00,
2013-05-28 05:39:00,45.0,14.6,29.79,North,5,0.0,0.0,29,0.00,,,0.00,VWS V14.01,2013-05-28 12:39:00,
2013-05-28 05:45:00,45.1,14.8,29.79,North,5,0.0,0.0,29,0.00,,,0.00,VWS V14.01,2013-05-28 12:45:00,
2013-05-28 05:50:00,45.3,14.9,29.79,North,2,0.0,0.0,29,0.00,,,0.00,VWS V14.01,2013-05-28 12:50:00,
2013-05-28 05:56:00,45.5,15.1,29.79,North,2,0.0,0.0,29,0.00,,,0.00,VWS V14.01,2013-05-28 12:56:00,
2013-05-28 06:01:00,45.7,15.3,29.79,North,2,0.0,0.0,29,0.00,,,0.00,VWS V14.01,2013-05-28 13:01:00,
2013-05-28 06:06:00,45.9,15.4,29.79,North,2,0.0,0.0,29,0.00,,,0.00,VWS V14.01,2013-05-28 13:06:00,
2013-05-28 06:11:00,46.0,15.6,29.79,North,2,0.0,0.0,29,0.00,,,0.00,VWS V14.01,2013-05-28 13:11:00,
2013-05-28 06:16:00,46.0,15.6,29.79,North,2,0.0,0.0,29,0.00,,,0.00,VWS V14.01,2013-05-28 13:16:00,
2013-05-28 06:22:00,46.0,15.6,29.79,North,2,0.0,0.0,29,0.00,,,0.00,VWS V14.01,2013-05-28 13:22:00,
2013-05-28 06:27:00,46.0,15.6,29.79,North,2,0.0,0.0,29,0.00,,,0.00,VWS V14.01,2013-05-28 13:27:00,
2013-05-28 06:32:00,46.0,15.6,29.79,North,2,0.0,0.0,29,0.00,,,0.00,VWS V14.01,2013-05-28 13:32:00,
2013-05-28 06:37:00,46.2,15.7,29.79,ESE,123,0.0,0.0,29,0.00,,,0.00,VWS V14.01,2013-05-28 13:37:00,
2013-05-28 06:42:00,46.2,15.7,29.79,ESE,123,0.0,0.0,29,0.00,,,0.00,VWS V14.01,2013-05-28 13:42:00,
2013-05-28 06:48:00,46.6,15.2,29.79,ENE,74,0.0,0.0,28,0.00,,,0.00,VWS V14.01,2013-05-28 13:48:00,
2013-05-28 06:53:00,46.8,15.4,29.79,NE,34,0.0,0.0,28,0.00,,,0.00,VWS V14.01,2013-05-28 13:53:00,
2013-05-28 06:58:00,46.8,15.4,29.79,NE,34,0.0,0.0,28,0.00,,,0.00,VWS V14.01,2013-05-28 13:58:00,
2013-05-28 07:03:00,46.8,15.4,29.79,North,353,2.7,2.7,28,0.00,,,0.00,VWS V14.01,2013-05-28 14:03:00,
2013-05-28 07:08:00,47.1,15.7,29.79,North,353,0.0,0.0,28,0.00,,,0.00,VWS V14.01,2013-05-28 14:08:00,
2013-05-28 07:14:00,47.8,16.3,29.79,NNW,344,0.0,0.0,28,0.00,,,0.00,VWS V14.01,2013-05-28 14:14:00,
2013-05-28 07:20:00,47.8,16.3,29.79,NNW,344,0.0,0.0,28,0.00,,,0.00,VWS V14.01,2013-05-28 14:20:00,
2013-05-28 07:25:00,48.2,16.6,29.79,SW,230,0.0,0.0,28,0.00,,,0.00,VWS V14.01,2013-05-28 14:25:00,
2013-05-28 07:31:00,48.2,16.6,29.79,SW,235,3.1,3.1,28,0.00,,,0.00,VWS V14.01,2013-05-28 14:31:00,
2013-05-28 07:36:00,48.4,16.8,29.79,West,259,4.0,4.0,28,0.00,,,0.00,VWS V14.01,2013-05-28 14:36:00,
2013-05-28 07:41:00,48.6,17.0,29.79,SW,232,3.6,3.6,28,0.00,,,0.00,VWS V14.01,2013-05-28 14:41:00,
2013-05-28 07:47:00,48.7,17.1,29.79,WSW,243,0.0,2.2,28,0.00,,,0.00,VWS V14.01,2013-05-28 14:47:00,
2013-05-28 07:52:00,48.9,17.3,29.79,SW,229,0.0,3.6,28,0.00,,,0.00,VWS V14.01,2013-05-28 14:52:00,
2013-05-28 07:58:00,49.1,17.4,29.79,SW,232,3.1,3.1,28,0.00,,,0.00,VWS V14.01,2013-05-28 14:58:00,
2013-05-28 08:03:00,49.3,17.6,29.79,SW,224,3.1,3.6,28,0.00,,,0.00,VWS V14.01,2013-05-28 15:03:00,
2013-05-28 08:09:00,49.3,16.7,29.79,SW,221,4.0,4.0,27,0.00,,,0.00,VWS V14.01,2013-05-28 15:09:00,
2013-05-28 08:16:00,49.6,17.0,29.79,SW,226,2.2,2.2,27,0.00,,,0.00,VWS V14.01,2013-05-28 15:16:00,
2013-05-28 08:21:00,50.0,17.4,29.79,WSW,254,0.0,0.0,27,0.00,,,0.00,VWS V14.01,2013-05-28 15:21:00,
2013-05-28 08:26:00,50.5,17.8,29.79,WSW,240,4.0,4.0,27,0.00,,,0.00,VWS V14.01,2013-05-28 15:26:00,
2013-05-28 08:31:00,51.1,18.3,29.79,SW,217,5.4,6.7,27,0.00,,,0.00,VWS V14.01,2013-05-28 15:31:00,
2013-05-28 08:37:00,51.4,18.6,29.79,WSW,238,6.3,6.3,27,0.00,,,0.00,VWS V14.01,2013-05-28 15:37:00,
2013-05-28 08:43:00,51.8,18.0,29.79,North,5,6.3,6.3,26,0.00,,,0.00,VWS V14.01,2013-05-28 15:43:00,
2013-05-28 08:48:00,52.2,18.3,29.79,SW,215,8.7,8.7,26,0.00,,,0.00,VWS V14.01,2013-05-28 15:48:00,
2013-05-28 08:54:00,52.5,18.6,29.79,SW,215,8.7,8.7,26,0.00,,,0.00,VWS V14.01,2013-05-28 15:54:00,
2013-05-28 08:59:00,52.9,19.0,29.79,SW,214,4.9,7.2,26,0.00,,,0.00,VWS V14.01,2013-05-28 15:59:00,
2013-05-28 09:06:00,52.9,19.0,29.79,WSW,252,10.5,10.5,26,0.00,,,0.00,VWS V14.01,2013-05-28 16:06:00,
2013-05-28 09:11:00,53.1,19.1,29.79,WSW,252,5.8,8.3,26,0.00,,,0.00,VWS V14.01,2013-05-28 16:11:00,
2013-05-28 09:16:00,53.4,19.4,29.79,SW,218,8.3,8.3,26,0.00,,,0.00,VWS V14.01,2013-05-28 16:16:00,
2013-05-28 09:22:00,53.4,19.4,29.79,SW,217,3.1,3.1,26,0.00,,,0.00,VWS V14.01,2013-05-28 16:22:00,
2013-05-28 09:27:00,53.6,19.6,29.79,WSW,239,5.4,5.4,26,0.00,,,0.00,VWS V14.01,2013-05-28 16:27:00,
2013-05-28 09:33:00,53.8,19.7,29.79,SW,236,8.7,8.7,26,0.00,,,0.00,VWS V14.01,2013-05-28 16:33:00,
2013-05-28 09:39:00,54.0,19.9,29.79,North,6,6.3,10.5,26,0.00,,,0.00,VWS V14.01,2013-05-28 16:39:00,
2013-05-28 09:44:00,53.8,19.7,29.79,North,8,8.3,8.3,26,0.00,,,0.00,VWS V14.01,2013-05-28 16:44:00,
2013-05-28 09:49:00,54.0,19.9,29.79,WSW,247,10.5,10.5,26,0.00,,,0.00,VWS V14.01,2013-05-28 16:49:00,
2013-05-28 09:54:00,54.0,19.9,29.79,WSW,255,8.7,8.7,26,0.00,,,0.00,VWS V14.01,2013-05-28 16:54:00,
2013-05-28 10:00:00,54.3,20.2,29.79,WSW,238,4.0,4.9,26,0.00,,,0.00,VWS V14.01,2013-05-28 17:00:00,
2013-05-28 10:05:00,53.8,19.7,29.79,SSW,213,4.0,4.5,26,0.00,,,0.00,VWS V14.01,2013-05-28 17:05:00,
2013-05-28 10:11:00,54.0,19.9,29.79,SW,230,6.3,8.1,26,0.00,,,0.00,VWS V14.01,2013-05-28 17:11:00,
2013-05-28 10:16:00,54.1,20.0,29.79,SW,229,7.6,7.6,26,0.00,,,0.00,VWS V14.01,2013-05-28 17:16:00,
2013-05-28 10:22:00,54.7,20.5,29.79,NNE,14,4.9,4.9,26,0.00,,,0.00,VWS V14.01,2013-05-28 17:22:00,
2013-05-28 10:27:00,54.9,20.6,29.79,WSW,249,5.8,5.8,26,0.00,,,0.00,VWS V14.01,2013-05-28 17:27:00,
2013-05-28 10:32:00,55.2,21.0,29.79,SW,214,8.1,8.1,26,0.00,,,0.00,VWS V14.01,2013-05-28 17:32:00,
2013-05-28 10:39:00,55.2,21.0,29.79,SW,219,10.1,10.1,26,0.00,,,0.00,VWS V14.01,2013-05-28 17:39:00,
2013-05-28 10:44:00,55.4,20.2,29.79,SW,216,8.1,8.1,25,0.00,,,0.00,VWS V14.01,2013-05-28 17:44:00,
2013-05-28 10:49:00,55.6,20.3,29.79,WSW,246,6.3,6.3,25,0.00,,,0.00,VWS V14.01,2013-05-28 17:49:00,
2013-05-28 10:55:00,55.2,21.0,29.79,SW,216,8.7,8.7,26,0.00,,,0.00,VWS V14.01,2013-05-28 17:55:00,
2013-05-28 11:00:00,56.1,20.8,29.79,NNE,12,8.1,8.3,25,0.00,,,0.00,VWS V14.01,2013-05-28 18:00:00,
2013-05-28 11:05:00,55.2,21.0,29.79,East,99,5.8,5.8,26,0.00,,,0.00,VWS V14.01,2013-05-28 18:05:00,
2013-05-28 11:11:00,55.0,20.8,29.79,SW,229,10.5,10.5,26,0.00,,,0.00,VWS V14.01,2013-05-28 18:11:00,
2013-05-28 11:16:00,54.5,20.3,29.79,SW,218,8.3,8.3,26,0.00,,,0.00,VWS V14.01,2013-05-28 18:16:00,
2013-05-28 11:21:00,54.7,20.5,29.79,SW,216,8.7,8.7,26,0.00,,,0.00,VWS V14.01,2013-05-28 18:21:00,
2013-05-28 11:27:00,55.4,20.2,29.79,SW,218,7.6,7.6,25,0.00,,,0.00,VWS V14.01,2013-05-28 18:27:00,
2013-05-28 11:32:00,54.9,20.6,29.79,SW,221,8.3,8.3,26,0.00,,,0.00,VWS V14.01,2013-05-28 18:32:00,
2013-05-28 11:38:00,54.5,20.3,29.79,SSW,209,11.9,11.9,26,0.00,,,0.00,VWS V14.01,2013-05-28 18:38:00,
2013-05-28 11:44:00,55.4,20.2,29.79,SW,219,8.3,8.3,25,0.00,,,0.00,VWS V14.01,2013-05-28 18:44:00,
2013-05-28 11:49:00,54.9,20.6,29.79,NNE,12,8.3,8.3,26,0.00,,,0.00,VWS V14.01,2013-05-28 18:49:00,
2013-05-28 11:55:00,55.4,20.2,29.79,WSW,240,10.5,10.5,25,0.00,,,0.00,VWS V14.01,2013-05-28 18:55:00,
2013-05-28 12:00:00,56.3,21.0,29.79,WSW,243,6.3,6.3,25,0.00,,,0.00,VWS V14.01,2013-05-28 19:00:00,
2013-05-28 12:05:00,56.3,21.0,29.79,SW,218,8.7,8.7,25,0.00,,,0.00,VWS V14.01,2013-05-28 19:05:00,
2013-05-28 12:11:00,56.5,21.1,29.79,North,9,13.2,13.2,25,0.00,,,0.00,VWS V14.01,2013-05-28 19:11:00,
2013-05-28 12:17:00,56.7,21.3,29.79,SSW,210,8.3,8.3,25,0.00,,,0.00,VWS V14.01,2013-05-28 19:17:00,
2013-05-28 12:22:00,55.9,20.6,29.79,NNE,13,8.3,11.0,25,0.00,,,0.00,VWS V14.01,2013-05-28 19:22:00,
2013-05-28 12:27:00,55.6,20.3,29.79,SSW,200,8.7,11.0,25,0.00,,,0.00,VWS V14.01,2013-05-28 19:27:00,
2013-05-28 12:33:00,55.9,20.6,29.79,SW,214,8.3,8.3,25,0.00,,,0.00,VWS V14.01,2013-05-28 19:33:00,
2013-05-28 12:39:00,55.8,20.5,29.79,SW,214,10.5,10.5,25,0.00,,,0.00,VWS V14.01,2013-05-28 19:39:00,
2013-05-28 12:45:00,56.5,21.1,29.79,SW,218,9.2,9.2,25,0.00,,,0.00,VWS V14.01,2013-05-28 19:45:00,
2013-05-28 12:50:00,56.8,21.4,29.79,SW,217,8.3,8.3,25,0.00,,,0.00,VWS V14.01,2013-05-28 19:50:00,
2013-05-28 12:56:00,56.5,21.1,29.79,NNE,12,10.5,10.5,25,0.00,,,0.00,VWS V14.01,2013-05-28 19:56:00,
2013-05-28 13:01:00,57.0,21.6,29.79,SE,146,8.3,13.2,25,0.00,,,0.00,VWS V14.01,2013-05-28 20:01:00,
2013-05-28 13:06:00,56.8,21.4,29.79,NNE,19,13.2,13.2,25,0.00,,,0.00,VWS V14.01,2013-05-28 20:06:00,
2013-05-28 13:11:00,57.2,20.8,29.79,South,186,10.1,11.0,24,0.00,,,0.00,VWS V14.01,2013-05-28 20:11:00,
2013-05-28 13:17:00,58.6,22.0,29.79,SSW,212,10.5,10.5,24,0.00,,,0.00,VWS V14.01,2013-05-28 20:17:00,
2013-05-28 13:22:00,57.9,21.4,29.79,WSW,237,8.1,8.1,24,0.00,,,0.00,VWS V14.01,2013-05-28 20:22:00,
2013-05-28 13:28:00,57.9,21.4,29.79,SW,231,12.3,12.3,24,0.00,,,0.00,VWS V14.01,2013-05-28 20:28:00,
2013-05-28 13:34:00,58.3,21.7,29.79,SW,232,7.6,7.6,24,0.00,,,0.00,VWS V14.01,2013-05-28 20:34:00,
2013-05-28 13:39:00,57.0,21.6,29.79,SW,218,10.1,11.0,25,0.00,,,0.00,VWS V14.01,2013-05-28 20:39:00,
2013-05-28 13:44:00,57.6,21.1,29.79,WSW,249,11.0,11.0,24,0.00,,,0.00,VWS V14.01,2013-05-28 20:44:00,
2013-05-28 13:49:00,58.1,21.5,29.79,South,190,8.1,8.1,24,0.00,,,0.00,VWS V14.01,2013-05-28 20:49:00,
2013-05-28 13:54:00,58.3,21.7,29.79,SSW,212,5.8,8.3,24,0.00,,,0.00,VWS V14.01,2013-05-28 20:54:00,
2013-05-28 14:01:00,58.3,21.7,29.79,SW,218,10.5,13.2,24,0.00,,,0.00,VWS V14.01,2013-05-28 21:01:00,
2013-05-28 14:06:00,59.2,22.4,29.79,SW,216,10.1,12.8,24,0.00,,,0.00,VWS V14.01,2013-05-28 21:06:00,
2013-05-28 14:12:00,59.0,22.3,29.79,South,182,10.5,11.4,24,0.00,,,0.00,VWS V14.01,2013-05-28 21:12:00,
2013-05-28 14:18:00,58.6,22.0,29.79,SW,225,13.6,13.6,24,0.00,,,0.00,VWS V14.01,2013-05-28 21:18:00,
2013-05-28 14:24:00,59.9,23.0,29.79,SSW,213,13.2,13.2,24,0.00,,,0.00,VWS V14.01,2013-05-28 21:24:00,
2013-05-28 14:30:00,59.5,22.7,29.79,SW,215,8.1,13.2,24,0.00,,,0.00,VWS V14.01,2013-05-28 21:30:00,
2013-05-28 14:35:00,59.0,22.3,29.79,NNE,17,10.5,10.5,24,0.00,,,0.00,VWS V14.01,2013-05-28 21:35:00,
2013-05-28 14:40:00,59.2,22.4,29.79,NE,36,8.3,8.3,24,0.00,,,0.00,VWS V14.01,2013-05-28 21:40:00,
2013-05-28 14:47:00,58.6,22.0,29.79,North,11,10.1,10.1,24,0.00,,,0.00,VWS V14.01,2013-05-28 21:47:00,
2013-05-28 14:52:00,58.3,21.7,29.79,WSW,239,10.5,10.5,24,0.00,,,0.00,VWS V14.01,2013-05-28 21:52:00,
2013-05-28 14:58:00,58.5,21.8,29.79,SSW,198,12.3,15.9,24,0.00,,,0.00,VWS V14.01,2013-05-28 21:58:00,
2013-05-28 15:04:00,58.3,21.7,29.79,WSW,245,11.9,13.2,24,0.00,,,0.00,VWS V14.01,2013-05-28 22:04:00,
2013-05-28 15:10:00,58.3,21.7,29.79,SW,217,10.5,10.5,24,0.00,,,0.00,VWS V14.01,2013-05-28 22:10:00,
2013-05-28 15:15:00,58.5,21.8,29.79,SW,230,5.8,5.8,24,0.00,,,0.00,VWS V14.01,2013-05-28 22:15:00,
2013-05-28 15:21:00,58.8,22.1,29.79,WSW,237,8.7,8.7,24,0.00,,,0.00,VWS V14.01,2013-05-28 22:21:00,
2013-05-28 15:26:00,58.8,22.1,29.79,SW,217,10.5,10.5,24,0.00,,,0.00,VWS V14.01,2013-05-28 22:26:00,
2013-05-28 15:31:00,58.8,22.1,29.79,WSW,252,10.5,10.5,24,0.00,,,0.00,VWS V14.01,2013-05-28 22:31:00,
2013-05-28 15:37:00,59.0,22.3,29.79,South,181,8.1,11.0,24,0.00,,,0.00,VWS V14.01,2013-05-28 22:37:00,
2013-05-28 15:42:00,58.1,21.5,29.79,WSW,248,8.3,8.3,24,0.00,,,0.00,VWS V14.01,2013-05-28 22:42:00,
2013-05-28 15:47:00,58.1,21.5,29.79,NNE,13,8.3,8.3,24,0.00,,,0.00,VWS V14.01,2013-05-28 22:47:00,
2013-05-28 15:53:00,57.7,21.2,29.79,South,177,8.1,11.4,24,0.00,,,0.00,VWS V14.01,2013-05-28 22:53:00,
2013-05-28 16:00:00,57.9,21.4,29.79,SE,138,12.8,12.8,24,0.00,,,0.00,VWS V14.01,2013-05-28 23:00:00,
2013-05-28 16:06:00,57.9,21.4,29.79,WSW,239,8.1,10.5,24,0.00,,,0.00,VWS V14.01,2013-05-28 23:06:00,
2013-05-28 16:11:00,58.1,21.5,29.79,NNE,13,10.5,10.5,24,0.00,,,0.00,VWS V14.01,2013-05-28 23:11:00,
2013-05-28 16:16:00,58.6,22.0,29.79,WSW,245,6.3,6.3,24,0.00,,,0.00,VWS V14.01,2013-05-28 23:16:00,
2013-05-28 16:21:00,58.6,22.0,29.79,SW,222,11.0,11.0,24,0.00,,,0.00,VWS V14.01,2013-05-28 23:21:00,
2013-05-28 16:27:00,58.1,21.5,29.79,SW,225,13.2,13.2,24,0.00,,,0.00,VWS V14.01,2013-05-28 23:27:00,
2013-05-28 16:33:00,56.8,21.4,29.79,WSW,241,10.5,15.0,25,0.00,,,0.00,VWS V14.01,2013-05-28 23:33:00,
2013-05-28 16:38:00,57.6,21.1,29.79,SSW,199,8.1,8.1,24,0.00,,,0.00,VWS V14.01,2013-05-28 23:38:00,
2013-05-28 16:44:00,58.1,21.5,29.79,SW,235,12.8,12.8,24,0.00,,,0.00,VWS V14.01,2013-05-28 23:44:00,
2013-05-28 16:49:00,58.5,21.8,29.79,NNE,26,10.1,12.8,24,0.00,,,0.00,VWS V14.01,2013-05-28 23:49:00,
2013-05-28 16:54:00,58.6,22.0,29.79,SSW,209,12.3,12.3,24,0.00,,,0.00,VWS V14.01,2013-05-28 23:54:00,
2013-05-28 16:59:00,58.5,21.8,29.79,North,11,7.6,8.1,24,0.00,,,0.00,VWS V14.01,2013-05-28 23:59:00,
2013-05-28 17:05:00,58.6,22.0,29.79,North,9,11.4,11.4,24,0.00,,,0.00,VWS V14.01,2013-05-29 00:05:00,
2013-05-28 17:10:00,58.8,22.1,29.79,SW,232,13.2,13.2,24,0.00,,,0.00,VWS V14.01,2013-05-29 00:10:00,
2013-05-28 17:16:00,59.4,22.6,29.79,SSW,206,6.3,10.5,24,0.00,,,0.00,VWS V14.01,2013-05-29 00:16:00,
2013-05-28 17:21:00,59.4,22.6,29.79,SW,234,12.3,12.3,24,0.00,,,0.00,VWS V14.01,2013-05-29 00:21:00,
2013-05-28 17:27:00,59.2,22.4,29.79,NNE,12,11.4,12.8,24,0.00,,,0.00,VWS V14.01,2013-05-29 00:27:00,
2013-05-28 17:32:00,59.2,22.4,29.79,West,271,5.8,5.8,24,0.00,,,0.00,VWS V14.01,2013-05-29 00:32:00,
2013-05-28 17:37:00,59.4,22.6,29.79,West,259,12.3,12.3,24,0.00,,,0.00,VWS V14.01,2013-05-29 00:37:00,
2013-05-28 17:42:00,59.0,22.3,29.79,North,10,17.9,17.9,24,0.00,,,0.00,VWS V14.01,2013-05-29 00:42:00,
2013-05-28 17:48:00,57.7,21.2,29.79,ENE,67,9.6,10.5,24,0.00,,,0.00,VWS V14.01,2013-05-29 00:48:00,
2013-05-28 17:53:00,57.4,20.9,29.79,WSW,244,8.7,8.7,24,0.00,,,0.00,VWS V14.01,2013-05-29 00:53:00,
2013-05-28 18:00:00,56.8,21.4,29.79,WSW,246,11.9,11.9,25,0.00,,,0.00,VWS V14.01,2013-05-29 01:00:00,
2013-05-28 18:05:00,55.4,20.2,29.79,SW,214,6.7,11.0,25,0.00,,,0.00,VWS V14.01,2013-05-29 01:05:00,
2013-05-28 18:10:00,54.7,20.5,29.79,SSW,211,10.1,10.1,26,0.00,,,0.00,VWS V14.01,2013-05-29 01:10:00,
2013-05-28 18:15:00,54.9,20.6,29.79,SW,235,7.6,7.6,26,0.00,,,0.00,VWS V14.01,2013-05-29 01:15:00,
2013-05-28 18:20:00,55.6,20.3,29.76,SSW,212,10.5,10.5,25,0.00,,,0.00,VWS V14.01,2013-05-29 01:20:00,
2013-05-28 18:26:00,55.9,20.6,29.76,WSW,258,10.5,10.5,25,0.00,,,0.00,VWS V14.01,2013-05-29 01:26:00,
2013-05-28 18:32:00,56.1,20.8,29.76,WSW,242,8.1,8.1,25,0.00,,,0.00,VWS V14.01,2013-05-29 01:32:00,
2013-05-28 18:37:00,55.9,20.6,29.79,SW,230,4.0,8.7,25,0.00,,,0.00,VWS V14.01,2013-05-29 01:37:00,
2013-05-28 18:43:00,56.1,20.8,29.79,WSW,252,7.6,7.6,25,0.00,,,0.00,VWS V14.01,2013-05-29 01:43:00,
2013-05-28 18:48:00,56.1,20.8,29.79,WNW,287,12.3,12.3,25,0.00,,,0.00,VWS V14.01,2013-05-29 01:48:00,
2013-05-28 18:53:00,55.9,20.6,29.79,West,268,8.7,8.7,25,0.00,,,0.00,VWS V14.01,2013-05-29 01:53:00,
2013-05-28 18:59:00,55.9,20.6,29.79,SW,226,15.0,15.0,25,0.00,,,0.00,VWS V14.01,2013-05-29 01:59:00,
2013-05-28 19:05:00,55.8,20.5,29.79,WSW,256,11.0,11.0,25,0.00,,,0.00,VWS V14.01,2013-05-29 02:05:00,
2013-05-28 19:12:00,55.2,21.0,29.76,WSW,245,11.0,11.0,26,0.00,,,0.00,VWS V14.01,2013-05-29 02:12:00,
2013-05-28 19:17:00,55.0,20.8,29.76,WSW,246,8.7,8.7,26,0.00,,,0.00,VWS V14.01,2013-05-29 02:17:00,
2013-05-28 19:22:00,55.0,20.8,29.76,SW,232,16.8,16.8,26,0.00,,,0.00,VWS V14.01,2013-05-29 02:22:00,
2013-05-28 19:28:00,54.9,20.6,29.76,SW,229,10.5,10.5,26,0.00,,,0.00,VWS V14.01,2013-05-29 02:28:00,
2013-05-28 19:34:00,54.5,20.3,29.76,WSW,256,9.6,10.5,26,0.00,,,0.00,VWS V14.01,2013-05-29 02:34:00,
2013-05-28 19:40:00,54.1,20.0,29.76,South,179,8.1,8.7,26,0.00,,,0.00,VWS V14.01,2013-05-29 02:40:00,
2013-05-28 19:45:00,54.0,19.9,29.76,WSW,239,8.7,8.7,26,0.00,,,0.00,VWS V14.01,2013-05-29 02:45:00,
2013-05-28 19:51:00,53.8,19.7,29.76,WSW,243,5.8,5.8,26,0.00,,,0.00,VWS V14.01,2013-05-29 02:51:00,
2013-05-28 19:57:00,53.8,19.7,29.76,West,264,12.3,12.3,26,0.00,,,0.00,VWS V14.01,2013-05-29 02:57:00,
2013-05-28 20:02:00,53.8,19.7,29.76,SW,230,7.6,8.3,26,0.00,,,0.00,VWS V14.01,2013-05-29 03:02:00,
2013-05-28 20:08:00,53.8,19.7,29.76,WSW,257,3.1,3.1,26,0.00,,,0.00,VWS V14.01,2013-05-29 03:08:00,
2013-05-28 20:13:00,53.8,19.7,29.76,SE,144,8.3,8.3,26,0.00,,,0.00,VWS V14.01,2013-05-29 03:13:00,
2013-05-28 20:18:00,53.6,19.6,29.76,WSW,256,0.0,0.0,26,0.00,,,0.00,VWS V14.01,2013-05-29 03:18:00,
2013-05-28 20:25:00,53.2,19.3,29.76,West,271,5.4,5.4,26,0.00,,,0.00,VWS V14.01,2013-05-29 03:25:00,
2013-05-28 20:30:00,53.1,19.1,29.76,West,267,0.0,4.0,26,0.00,,,0.00,VWS V14.01,2013-05-29 03:30:00,
2013-05-28 20:36:00,52.9,19.0,29.76,WSW,244,0.0,4.0,26,0.00,,,0.00,VWS V14.01,2013-05-29 03:36:00,
2013-05-28 20:41:00,52.5,18.6,29.76,WNW,294,0.0,3.6,26,0.00,,,0.00,VWS V14.01,2013-05-29 03:41:00,
2013-05-28 20:47:00,52.5,18.6,29.76,North,357,0.0,0.0,26,0.00,,,0.00,VWS V14.01,2013-05-29 03:47:00,
2013-05-28 20:52:00,52.5,18.6,29.76,North,357,0.0,0.0,26,0.00,,,0.00,VWS V14.01,2013-05-29 03:52:00,
2013-05-28 20:58:00,52.3,18.5,29.76,WNW,288,0.0,0.0,26,0.00,,,0.00,VWS V14.01,2013-05-29 03:58:00,
2013-05-28 21:01:00,52.2,18.3,29.76,WNW,288,0.0,0.0,26,0.00,,,0.00,VWS V14.01,2013-05-29 04:01:00,
2013-05-28 21:04:00,52.2,18.3,29.76,WNW,299,0.0,0.0,26,0.00,,,0.00,VWS V14.01,2013-05-29 04:04:00,
2013-05-28 21:05:00,52.0,18.2,29.76,WNW,288,3.6,3.6,26,0.00,,,0.00,VWS V14.01,2013-05-29 04:05:00,
2013-05-28 21:07:00,52.2,18.3,29.76,WSW,239,0.0,2.2,26,0.00,,,0.00,VWS V14.01,2013-05-29 04:07:00,
2013-05-28 21:12:00,52.2,18.3,29.76,WNW,288,0.0,0.0,26,0.00,,,0.00,VWS V14.01,2013-05-29 04:12:00,
2013-05-28 21:18:00,52.0,18.2,29.76,North,357,3.1,3.1,26,0.00,,,0.00,VWS V14.01,2013-05-29 04:18:00,
2013-05-28 21:23:00,51.8,18.0,29.76,North,3,0.0,0.0,26,0.00,,,0.00,VWS V14.01,2013-05-29 04:23:00,
2013-05-28 21:29:00,51.6,18.8,29.76,North,0,0.0,0.0,27,0.00,,,0.00,VWS V14.01,2013-05-29 04:29:00,
2013-05-28 21:34:00,51.4,18.6,29.76,WNW,286,0.0,0.0,27,0.00,,,0.00,VWS V14.01,2013-05-29 04:34:00,
2013-05-28 21:39:00,51.3,18.4,29.76,WNW,302,0.0,0.0,27,0.00,,,0.00,VWS V14.01,2013-05-29 04:39:00,
2013-05-28 21:45:00,51.3,18.4,29.76,West,262,0.0,3.1,27,0.00,,,0.00,VWS V14.01,2013-05-29 04:45:00,
2013-05-28 21:51:00,51.3,18.4,29.76,SW,227,5.4,5.4,27,0.00,,,0.00,VWS V14.01,2013-05-29 04:51:00,
2013-05-28 21:56:00,51.3,18.4,29.76,WSW,252,3.6,4.0,27,0.00,,,0.00,VWS V14.01,2013-05-29 04:56:00,
2013-05-28 22:01:00,51.1,18.3,29.76,West,263,3.6,3.6,27,0.00,,,0.00,VWS V14.01,2013-05-29 05:01:00,
2013-05-28 22:07:00,50.9,18.1,29.76,WNW,300,4.0,4.0,27,0.00,,,0.00,VWS V14.01,2013-05-29 05:07:00,
2013-05-28 22:13:00,50.7,18.0,29.76,SW,233,7.2,7.2,27,0.00,,,0.00,VWS V14.01,2013-05-29 05:13:00,
2013-05-28 22:19:00,50.7,18.0,29.76,WNW,303,2.7,2.7,27,0.00,,,0.00,VWS V14.01,2013-05-29 05:19:00,
2013-05-28 22:24:00,50.5,17.8,29.73,WSW,255,0.0,0.0,27,0.00,,,0.00,VWS V14.01,2013-05-29 05:24:00,
2013-05-28 22:29:00,50.5,17.8,29.73,WSW,241,2.7,2.7,27,0.00,,,0.00,VWS V14.01,2013-05-29 05:29:00,
2013-05-28 22:34:00,50.5,17.8,29.73,WSW,240,8.3,8.3,27,0.00,,,0.00,VWS V14.01,2013-05-29 05:34:00,
2013-05-28 22:40:00,50.4,17.7,29.73,WSW,247,3.6,3.6,27,0.00,,,0.00,VWS V14.01,2013-05-29 05:40:00,
2013-05-28 22:45:00,50.4,17.7,29.73,SW,223,2.7,2.7,27,0.00,,,0.00,VWS V14.01,2013-05-29 05:45:00,
2013-05-28 22:50:00,50.2,17.5,29.73,WSW,241,2.2,4.5,27,0.00,,,0.00,VWS V14.01,2013-05-29 05:50:00,
2013-05-28 22:55:00,49.8,17.2,29.73,SE,139,4.0,5.8,27,0.00,,,0.00,VWS V14.01,2013-05-29 05:55:00,
2013-05-28 23:00:00,49.8,17.2,29.73,WNW,296,0.0,2.2,27,0.00,,,0.00,VWS V14.01,2013-05-29 06:00:00,
2013-05-28 23:06:00,49.6,17.0,29.73,NW,318,0.0,0.0,27,0.00,,,0.00,VWS V14.01,2013-05-29 06:06:00,
2013-05-28 23:11:00,49.6,17.0,29.73,West,280,0.0,0.0,27,0.00,,,0.00,VWS V14.01,2013-05-29 06:11:00,
2013-05-28 23:16:00,49.3,16.7,29.73,West,280,0.0,0.0,27,0.00,,,0.00,VWS V14.01,2013-05-29 06:16:00,
2013-05-28 23:21:00,49.3,16.7,29.73,SW,217,3.6,3.6,27,0.00,,,0.00,VWS V14.01,2013-05-29 06:21:00,
2013-05-28 23:26:00,49.1,16.6,29.73,SW,224,3.1,3.1,27,0.00,,,0.00,VWS V14.01,2013-05-29 06:26:00,
2013-05-28 23:31:00,49.1,16.6,29.73,SW,219,2.7,4.0,27,0.00,,,0.00,VWS V14.01,2013-05-29 06:31:00,
2013-05-28 23:36:00,48.9,16.4,29.73,WSW,255,3.1,3.1,27,0.00,,,0.00,VWS V14.01,2013-05-29 06:36:00,
2013-05-28 23:42:00,48.9,16.4,29.73,SW,224,4.0,5.8,27,0.00,,,0.00,VWS V14.01,2013-05-29 06:42:00,
2013-05-28 23:48:00,48.7,16.3,29.73,WSW,238,5.4,5.4,27,0.00,,,0.00,VWS V14.01,2013-05-29 06:48:00,
2013-05-28 23:54:00,48.7,16.3,29.73,SW,227,3.6,3.6,27,0.00,,,0.00,VWS V14.01,2013-05-29 06:54:00,
2013-05-28 23:59:00,48.7,16.3,29.73,WSW,239,0.0,0.0,27,0.00,,,0.00,VWS V14.01,2013-05-29 06:59:00,